Flag for Germany Weather past 2 weeks in Würzburg, Bavaria, Germany

Now
48 °F

Clear.


Feels Like: 48 °F
Forecast: 52 / 69 °F
Wind: 2 mph from South

Location: Wuerzburg

Current Time: Apr 25, 2015 at 2:57:42 AM

Latest Report: Apr 25, 2015 at 1:00 AM


Visibility: 22 mi

Pressure: 29.93 "Hg

Humidity: 59%

Dew point: 34 °F

Location of WürzburgLocation

Historic Weather in Würzburg — Graph

°F

Würzburg temperature yesterday

Maximum temperature yesterday: 68 °F (at 5:00 PM)
Minimum temperature yesterday: 36 °F (at 7:00 AM)
Average temperature yesterday: 53 °F

Past Weeks' High & Low Weather Summary

 TemperatureHumidityPressure
High76 °F (Apr 15, 4:00 PM)91% (Apr 12, 7:00 AM)30.49 "Hg (Apr 12, 7:00 AM)
Low32 °F (Apr 19, 6:00 AM)20% (Apr 15, 7:00 PM)29.86 "Hg (Apr 16, 7:00 PM)
Average54 °F54%30.21 "Hg
* Reported Apr 10 1:00 AM — Apr 25 1:00 AM, Würzburg, Weather by CustomWeather, © 2015

Note: Actual official high and low records may vary slightly from our data, if they occured in-between our weather recording intervals... More about our weather records

Advertising

Würzburg weather history for previous 24 hours

 ConditionsComfort  
Time TempWeatherWind HumidityBarometerVisibility
1:00 AM
Sat, Apr 25
48 °FClear.2 mph59%29.93 "Hg22 mi
12:00 AM51 °FPassing clouds.2 mph53%29.93 "Hg22 mi
11:00 PM
Fri, Apr 24
53 °FPassing clouds.2 mph51%29.93 "Hg25 mi
10:00 PM57 °FPassing clouds.2 mph37%29.92 "Hg34 mi
9:00 PM58 °FPassing clouds.2 mph39%29.92 "Hg25 mi
8:00 PM64 °FScattered clouds.5 mph30%29.90 "Hg25 mi
7:00 PM67 °FPassing clouds.3 mph26%29.90 "Hg22 mi
6:00 PM68 °FPassing clouds.6 mph24%29.91 "Hg25 mi
5:00 PM68 °FPassing clouds.6 mph23%29.91 "Hg25 mi
4:00 PM68 °FSunny.5 mph26%29.93 "Hg25 mi
3:00 PM66 °FSunny.5 mph25%29.96 "Hg28 mi
2:00 PM64 °FSunny.6 mph29%29.98 "Hg28 mi
1:00 PM64 °FSunny.5 mph30%29.99 "Hg22 mi
12:00 PM60 °FSunny.5 mph36%30.01 "Hg19 mi
11:00 AM56 °FSunny.3 mph46%30.04 "Hg19 mi
10:00 AM52 °FSunny.2 mph52%30.05 "Hg12 mi
9:00 AM46 °FSunny.1 mph66%30.07 "Hg11 mi
8:00 AM40 °FSunny.1 mph75%30.08 "Hg7 mi
7:00 AM36 °FSunny.2 mph86%30.09 "Hg6 mi
6:00 AM37 °FClear.1 mph83%30.08 "Hg9 mi
5:00 AM38 °FClear.1 mph81%30.07 "Hg11 mi
4:00 AM39 °FClear.1 mph78%30.06 "Hg11 mi
3:00 AM40 °FClear.2 mph75%30.06 "Hg11 mi
2:00 AM42 °FClear.1 mph73%30.07 "Hg10 mi
Weather by CustomWeather, © 2015

See weather overviewHow to use our weather pages